Dewpoint
43 43 44 44 45 45 43 38 30 41 46 35 33 27 23 26 21 22 25 24 22 20 22 22 9 12 19 19 20 22 26 26 20 23 22 23 23 27 30 30 28 29 25 21
42 42 43 44 44 45 44 35 31 38 39 27 25 23 21 21 22 22 23 27 24 23 22 23 25 21 19 22 23 25 26 27 24 16 22 27 27 25 27 31 30 28 29 25
41 41 41 43 43 43 43 36 29 34 38 31 27 24 22 20 23 26 24 23 29 26 22 23 26 27 22 26 25 36 34 28 25 22 20 22 26 24 25 30 32 30 28 24
41 40 39 41 42 43 43 36 32 28 29 30 27 27 26 22 22 21 24 24 27 25 22 21 22 25 27 32 36 30 31 25 22 22 14 13 19 21 23 26 30 27 26 24
40 40 38 40 42 42 41 33 34 34 29 27 30 28 27 22 19 21 23 31 27 25 22 23 22 25 31 30 34 31 31 25 25 21 16 13 14 17 21 23 22 22 23 24
39 40 39 38 40 42 38 40 40 36 30 27 28 27 27 30 29 27 29 26 26 28 23 23 25 27 28 27 29 34 32 30 25 23 19 16 20 15 16 22 23 22 23 26
39 40 40 39 39 40 41 40 39 34 27 25 25 23 24 25 26 27 29 33 34 34 29 25 27 25 24 29 29 31 35 29 28 27 22 24 20 18 15 16 18 21 23 23
39 39 40 39 39 40 40 42 38 35 28 23 22 24 24 24 27 29 32 37 34 36 34 28 24 25 26 28 31 29 34 34 31 30 25 20 22 25 21 19 20 23 24 24
38 39 40 40 39 39 41 40 42 37 31 27 25 25 25 28 31 32 31 35 37 38 38 29 24 26 28 26 29 33 33 38 33 29 25 20 22 23 25 22 21 22 25 31
37 38 40 40 39 38 41 38 44 39 32 33 32 31 29 31 31 30 36 35 38 38 36 32 22 25 29 29 27 33 35 35 35 30 26 23 29 31 31 26 25 33 32 36
36 37 39 40 38 37 40 39 45 40 36 33 32 32 33 34 35 30 36 34 37 38 33 34 25 22 23 23 29 26 30 32 33 34 31 31 31 33 28 35 40 38 38 40
36 37 39 42 38 38 40 38 44 46 38 34 38 39 39 39 38 36 35 36 34 38 35 35 31 24 25 23 23 26 28 29 29 29 31 37 37 39 40 39 41 41 42 42
35 38 38 40 37 38 39 40 44 43 37 35 36 36 36 41 43 42 33 37 39 38 41 40 38 27 25 27 24 23 26 35 33 33 32 34 37 39 40 40 41 41 41 36
36 38 38 38 36 38 40 40 44 42 38 33 31 40 39 41 43 42 41 39 39 37 36 39 38 36 31 25 24 25 24 34 35 31 32 34 34 38 39 38 35 34 34 32
37 37 38 36 36 38 41 41 43 44 37 33 35 38 38 40 40 39 40 39 38 34 34 36 37 34 33 33 31 27 29 31 32 28 34 38 34 33 33 31 29 28 28 27
40 38 36 36 37 39 40 36 43 44 42 34 31 35 37 38 39 38 37 37 38 35 34 34 34 34 35 31 29 27 27 33 37 32 33 34 33 32 32 31 31 31 31 32
38 36 36 37 39 41 36 36 39 43 41 34 30 28 35 38 38 38 37 37 36 36 34 33 36 33 36 33 29 25 29 32 31 31 31 31 30 31 32 34 34 36 34 33
36 36 37 39 42 42 40 43 43 43 38 38 30 25 32 37 36 35 34 33 33 34 34 34 32 34 35 30 23 24 27 27 27 29 31 32 33 32 32 31 29 27 27 27
35 36 39 41 40 36 38 41 43 44 39 34 27 22 28 36 35 33 31 33 29 32 29 29 31 30 28 32 28 29 29 29 29 29 30 30 30 28 29 27 24 24 23 24
36 39 37 33 38 40 42 39 35 34 35 37 26 24 25 31 32 28 29 32 27 24 24 29 29 30 33 33 34 32 31 30 29 29 28 29 28 27 25 22 23 24 24 25
38 35 34 40 43 38 34 33 33 34 30 28 25 24 24 30 24 28 30 29 29 21 21 22 19 20 25 29 31 33 33 32 30 29 27 26 27 26 26 25 25 26 26 25
37 36 39 39 35 33 31 30 30 28 21 26 23 24 27 30 31 25 26 22 26 16 27 24 17 22 25 27 29 31 30 31 30 29 29 30 29 29 28 28 27 27 26 28
38 36 33 33 31 27 26 24 22 24 22 27 26 24 26 27 26 24 21 25 23 23 28 20 23 23 25 28 29 31 31 31 30 28 29 29 29 30 30 29 29 28 28 27
32 32 28 27 25 24 19 20 18 23 25 26 23 25 27 24 21 21 17 20 23 18 14 18 28 23 24 27 29 29 31 31 31 32 32 32 32 31 33 34 31 32 28 27
31 32 25 24 24 22 22 23 24 27 28 26 25 24 26 27 26 22 17 16 7 6 15 24 25 25 27 28 29 27 28 30 27 29 30 33 33 32 33 34 34 33 36 36
33 30 26 25 23 24 24 23 27 29 26 25 24 22 20 20 20 14 9 0 2 15 24 25 24 25 26 28 29 28 28 28 26 25 26 29 35 34 34 35 35 35 36 35
33 31 30 29 26 24 24 25 26 28 25 24 23 22 15 22 18 9 21 18 19 25 26 22 24 24 25 27 28 30 28 26 25 25 27 30 32 38 33 33 29 33 31 35
Lifted_Index
12 12 11 11 11 10 11 11 11 10 9 9 9 9 9 9 8 7 6 6 5 5 3 2 2 2 3 3 3 3 2 2 2 2 2 2 2 2 1 1 1 1 1 1
12 12 11 11 10 10 10 11 10 10 9 9 9 9 9 8 8 7 6 5 5 5 4 3 2 2 3 2 2 2 2 2 2 2 2 2 2 2 2 1 1 1 1 1
12 12 11 10 10 9 9 10 10 9 9 8 8 7 7 7 6 5 4 4 4 4 4 3 3 2 2 2 2 2 1 1 1 2 2 3 3 3 2 1 1 1 1 1
11 11 11 10 9 9 8 8 8 7 7 6 5 5 5 4 3 2 2 2 2 3 4 4 3 2 1 1 1 1 1 1 1 2 2 2 3 3 2 2 2 2 2 2
11 11 11 10 9 8 7 6 5 4 4 3 3 3 3 2 2 1 1 0 1 1 3 3 3 2 1 -0 -0 -0 0 0 1 2 2 2 2 3 2 2 2 2 2 2
11 11 10 10 8 7 5 4 3 2 2 2 2 2 2 2 1 1 1 0 -0 0 1 2 2 2 1 1 0 -0 -0 -0 0 1 1 2 2 3 3 3 3 3 2 2
10 10 10 9 7 5 3 2 1 1 1 1 1 2 2 2 1 1 1 0 0 -0 0 1 1 2 2 2 1 0 -0 -1 -0 0 1 1 2 3 3 3 3 3 3 3
10 9 8 7 5 4 3 2 1 1 1 1 1 1 2 2 2 1 1 1 1 0 -0 -0 0 1 1 1 1 1 -0 -1 -1 -1 -0 1 2 3 3 3 3 3 3 3
9 8 6 5 4 3 2 2 1 1 1 1 1 1 2 2 2 2 2 1 1 0 -0 -0 0 1 0 0 0 0 -0 -1 -1 -1 -1 -0 1 2 2 2 2 2 2 2
7 6 4 3 3 3 2 2 1 1 1 1 1 1 1 2 2 2 2 2 1 0 -0 -0 0 1 0 0 0 -0 -1 -1 -1 -1 -1 -1 1 2 2 1 2 1 1 1
5 4 3 3 3 3 3 2 1 1 1 2 2 2 1 2 2 3 2 2 1 0 -0 -0 -0 0 1 1 1 0 -1 -1 -0 -0 -1 -1 0 1 1 1 1 1 0 0
4 4 3 3 3 3 2 1 0 0 2 2 2 2 2 2 2 3 3 2 2 0 -0 -1 -1 -0 0 1 1 1 0 -0 -0 0 0 0 0 1 1 1 0 0 0 0
3 3 3 3 3 3 2 1 1 1 2 3 3 3 3 3 3 3 3 3 2 2 0 -1 -1 -1 -0 0 1 1 0 -0 -1 -0 0 0 0 0 0 0 0 0 1 1
3 3 2 3 3 3 2 2 1 1 2 2 2 3 3 3 3 4 3 3 3 3 2 0 -1 -1 -0 0 0 0 -0 -1 -1 -0 0 0 0 0 -0 -0 0 0 1 1
3 3 3 3 3 3 2 2 1 2 2 2 2 3 3 3 3 4 3 3 3 3 2 1 0 -0 -0 -0 -0 -0 -0 -0 -0 -0 0 0 0 0 0 0 1 1 1 2
3 3 3 3 3 3 2 2 2 2 2 3 3 3 3 3 4 4 3 3 3 3 3 2 1 0 -0 -0 -0 -0 0 0 -0 -0 -0 0 0 1 1 1 2 2 3 3
3 3 3 3 3 3 3 2 2 3 3 3 3 3 3 3 4 4 4 4 4 4 3 3 2 1 -0 -0 0 0 1 0 -0 -0 0 0 1 1 2 3 4 4 5 5
3 3 3 3 3 3 3 3 3 3 3 3 3 2 3 3 4 4 4 4 4 4 4 4 3 2 0 0 1 1 1 1 1 1 1 1 1 2 3 4 5 6 6 7
3 3 3 2 2 3 3 3 3 3 3 3 2 2 2 3 3 4 5 5 4 4 4 4 4 3 2 2 3 3 3 3 3 2 2 2 3 3 4 6 7 7 8 8
3 3 2 2 2 3 3 3 3 3 3 3 2 2 3 3 3 4 4 5 4 4 5 5 5 4 5 5 5 6 7 6 6 5 4 4 5 5 6 7 8 8 8 8
3 3 3 3 2 2 2 2 3 3 3 2 3 3 3 3 3 4 5 5 5 5 5 6 5 5 6 7 7 8 8 8 8 7 7 6 7 7 7 8 8 8 9 9
3 3 3 3 2 2 2 2 3 3 2 2 3 3 3 4 4 4 5 5 5 5 5 5 5 6 7 7 7 7 8 8 8 8 8 8 7 8 8 8 8 8 8 9
3 3 3 2 2 2 2 3 3 2 2 2 3 3 3 4 4 5 5 5 5 5 5 5 5 6 7 7 7 7 7 7 7 7 7 7 7 7 7 8 8 8 8 9
3 2 2 2 2 2 3 3 3 3 3 3 3 3 3 4 4 4 4 4 4 4 4 4 5 6 6 6 6 6 7 7 7 7 7 7 7 7 7 7 8 8 8 8
2 2 2 2 2 2 3 3 3 3 3 3 3 3 3 4 4 3 3 3 3 3 4 4 5 6 6 6 6 6 6 6 7 7 7 7 7 7 7 7 7 7 8 8
1 2 2 2 2 3 3 3 4 4 4 4 3 3 3 3 3 2 2 2 2 3 4 4 5 5 5 5 5 5 6 6 6 6 6 6 6 6 6 6 7 7 7 7
1 1 2 3 3 3 3 4 4 4 4 4 3 3 3 3 2 2 2 2 3 3 3 4 4 4 4 4 4 4 5 5 6 6 6 5 6 6 6 6 6 6 7 7